Showing default

SPARK 1, 41900

Orbit data source: Space-Track

SPARK 1, 41900 is a payload satellite owned by SECM (CN) in SSO that was launched on Wed, 21 Dec 2016 UTC via a CHANG ZHENG 2D launch vehicle from the Jiuquan Satellite Launch Center, China (JSC). Payloads include a variety of satellites, spacecraft, and rockets equipped with specific instruments for various scientific and technological missions. These include communications satellites like Starlink; space stations such as the ISS; scientific satellites like the Hubble; Earth observation satellites from companies like Planet Labs, Umbra, and HawkEye 360; GPS; miniature CubeSats for education and research; and military/defense satellites.

Loading next visibility...
SPARK 1 details
Identifier
41900, 2016-081C
Orbit
SSO
Last TLE update8 hours ago
Origin
Flag of CNSECM (CN / PRC)
ManufacturerSECM
MissionOperational Civil Imaging
Bus & MotorSPARK, Unknown motor
Mass43 kg wet, 43 kg dry
Launch date (UTC)
2016-12-21 (8 years ago)
Launch vehicle
CHANG ZHENG 2D
Launch site
Jiuquan Satellite Launch Center, China (JSC)
Object type
Payload
Rocket body
Debris
Shape & HBRBox + 2 Pan, 1 m
Radar Cross Section0.388 m², Medium (>0.1 m² and < 1m²)

Expand to show TLE details & history

TLE from 8 hours ago
0 SPARK 1
1 41900U 16081C   24361.17320373  .00001862  00000-0  40943-3 0  9992
2 41900  98.4941 330.1728 0024112 178.0691 182.0605 14.58565328425805
Epoch: 2024-12-26T04:09Z
Definitive object data (Epoch: 2024-12-26T04:09:24.802Z)
Latitude0.00001°
Longitude172.66305°
Altitude717.838 km
Speed7.488 km/s
True Right ascension22h 00m 41s
True Declination0° 00' 00"
Sunlit
Object was in daylight at TLE epoch
Visualization TLE readout
Latitude35.93712°
Longitude166.83928°
Altitude715.857 km
Speed7.494 km/s
Apparent Right ascension22h 40m 27s
Apparent Declination0° 24' 16"
Sunlit
Object is in daylight
Visualization observer readout
Local Sidereal Time11:54:51
Azimuth27.464° NE
Elevation-46.252°
Doppler factor1
Orbital elements
Apogee altitude711.962 km
Perigee altitude677.853 km
Semi-major axis7,073.044 km
Eccentricity0.0024112
Inclination98.4941°
RAAN330.1728°
Arg. of periapsis178.0691°
True anomaly182.0506°
Mean anomaly182.0605°
Eccentric anomaly182.05554°
Mean motion3.64866 °/min
BSTAR0.00040943
Orbital period98.67 mins
Loading maneuver chart data...
Loading historical data...
Loading historical data...
Loading historical data...
Loading historical data...
Loading historical data...
Loading historical data...
Loading historical data...
Other satellites on launch #81 in the year 2016 (2016-12-21 UTC)

SPARK 1 Visibility forecast

Observer location: undefined°, undefined

Span
Click to sort rows by Start time (UTC) header in descending order
Start Az.
Max El. time (UTC)
Max El. Az.
Max El.
End time (UTC)
End Az.
4 mins2024-12-26 20:48:19.136Z84.024° E2024-12-26 20:50:19.136Z56.643° ENE13.838°2024-12-26 20:52:19.136Z31.403° NE
8 mins2024-12-26 22:23:19.136Z179.471° S2024-12-26 22:27:19.136Z281.429° WNW41.301°2024-12-26 22:31:19.136Z339.223° N
7 mins2024-12-27 10:23:19.136Z43.473° NE2024-12-27 10:26:19.136Z98.69° ESE27.444°2024-12-27 10:30:19.136Z159.708° S
6 mins2024-12-27 12:01:19.136Z334.667° NNW2024-12-27 12:03:19.136Z301.524° NW22.732°2024-12-27 12:07:19.136Z239.691° WSW
|